Voltar ao catálogo

GAOFEN-5 02

AtivoCiênciaSSO
NORAD 49122·PAYLOAD·🇨🇳 China

Lançado Sep 7, 2021 de Taiyuan Satellite Launch Center

Loading…

Próximas Passagens (próximas 24 horas)

TLE

AtualizadoSource: Space-Track

Época: Sep 14, 2026, 23:24 UTC

1 49122U 21079A   26257.97549089  .00000114  00000-0  35026-4 0  9996
2 49122  98.2543 331.6004 0002122  76.8967 283.2469 14.57679775267162

Acompanhe GAOFEN-5 02 em tempo real com AllMySat

Download on the App Store